Regional Weather Roundup
Issued by NWS

Home | Current Version | Previous Version | Graphics & Text | Print | Product List | Glossary On
Versions: 1 2 3 4 5 6 7 8 9 10 11 12 13 14 15 16 17 18 19 20 21 22 23 24 25 26 27 28 29 30 31 32 33 34 35 36 37 38 39 40 41 42 43 44 45 46 47 48 49 50
000
ASUS43 KLSX 060307
RWRMO

WEATHER SUMMARY FOR MISSOURI
NATIONAL WEATHER SERVICE SPRINGFIELD MO
900 PM CST THU MAR 05 2015

NOTE: "FAIR" INDICATES FEW OR NO CLOUDS BELOW 12,000 FEET WITH NO
       SIGNIFICANT WEATHER AND/OR OBSTRUCTIONS TO VISIBILITY.
       CURRENT SKY AND/OR WEATHER CONDITIONS ARE NOT AVAILABLE FOR
       CHILLICOTHE AND FARMINGTON.

MOZ001>031-035>038-043-044-053-054-060400-
...NORTHERN AND WESTERN MISSOURI...

CITY           SKY/WX    TMP DP  RH WIND       PRES   REMARKS
KANSAS CTY INT CLEAR     22   7  52 SE8       30.47F WCI  12
KANSAS C DTWN  CLEAR     27  12  53 S7        30.49F WCI  19
LEE`S SUMMIT   CLEAR     25  12  58 S6        30.48F WCI  18
ST JOSEPH      CLEAR     24   7  48 SE6       30.47F WCI  17
CHILLICOTHE      N/A     22   9  57 SE5       30.53R WCI  16
KIRKSVILLE     CLEAR     16   9  74 SE8       30.52S WCI   5

$$
MOZ066>068-077>081-088>096-101>105-060400-
...SOUTHWEST MISSOURI...

CITY           SKY/WX    TMP DP  RH WIND       PRES   REMARKS
SPRINGFIELD    CLEAR     20  13  74 SE3       30.51S
JOPLIN         CLEAR     28  14  55 SE7       30.51F WCI  21

$$
MOZ032>034-039>042-045>050-055>058-069>072-060400-
...CENTRAL MISSOURI...

CITY           SKY/WX    TMP DP  RH WIND       PRES   REMARKS
COLUMBIA       CLEAR     21  11  65 E3        30.54R
JEFFERSON CITY CLEAR     21  10  62 CALM      30.57R
ROLLA          CLEAR     19  14  81 CALM      30.51S
SEDALIA        CLEAR     22  11  62 SE5       30.53F WCI  16
WHITEMAN AFB   CLEAR     23  10  58 SE5       30.51F WCI  17
WARRENSBURG    CLEAR     23  10  58 SE5       30.52F WCI  17
OSAGE BEACH    CLEAR     21  10  63 CALM      30.54S

$$
MOZ051-052-059>065-060400-
...EAST CENTRAL MISSOURI...

CITY           SKY/WX    TMP DP  RH WIND       PRES   REMARKS
ST LOUIS INTL  CLEAR     19   5  54 NE7       30.59S WCI  10
SPIRIT OF STL  CLEAR     19   9  65 CALM      30.58F
ST CHARLES     CLEAR     13   4  67 NE3       30.60S

$$
MOZ072>076-082>087-097>100-106>115-060400-
...SOUTH CENTRAL AND SOUTHEAST MISSOURI...

CITY           SKY/WX    TMP DP  RH WIND       PRES   REMARKS
CAPE GIRARDEAU PTCLDY    14   6  70 NE7       30.60R WCI   4
FARMINGTON     CLEAR     18  10  73 E5        30.57S WCI  11
POPLAR BLUFF   PTCLDY    20   7  57 E3        30.59R
WEST PLAINS    CLEAR     17   7  64 CALM      30.52S

$$


USA.gov is the U.S. government's official web portal to all federal, state and local government web resources and services.